User: anonymous   Login
Location: Fountain Hills
(33.6120°N, 111.7170°W)
Time: 13:07:41
(UTC-07:00)
Language:

Hamsat - Orbit

View from above orbital plane
View from above orbital plane
View from above satellite
View from above satellite

Ground track
Ground track

The orbit data is extracted from the following two-line orbital elements,

1 28650U 05017B   15147.97117669  .00001105  00000-0  12731-3 0  9992
2 28650 097.5739 141.3513 0025939 098.1289 262.2871 14.87354970544443
Epoch (UTC): 27 May 2015 23:18:29
Eccentricity: 0.0025939
inclination: 97.5739°
perigee height: 588 km
apogee height: 624 km
right ascension of ascending node: 141.3513°
argument of perigee: 98.1289°
revolutions per day: 14.87354970
mean anomaly at epoch: 262.2871°
orbit number at epoch: 54444

The dashed part of the orbit path shows where the satellite is in the earth's shadow,  

DLR